Content
SEND FEEDBACK

Daily
Averages
Monthly
Summary
Mauritania

NOUADHIBOU, MAURITANIA


Home > Africa > Mauritania
Elevation: 10 feet     Latitude: 20 56N     Longitude: 017 02W

WEATHER
 
SELECT A DAY
Number of Records: 121,942;   Date Range: 7/1/96 - 11/21/14
 
SHARE

PRINT THIS DATA

[ ← Previous Day ]
WEATHER ALMANAC - FEBRUARY 4, 2013
[ Next Day → ]
[ °C ]   °F
Weather ElementAverageHighLow
Temperature63.6 °F78 °F (3:00 pm) (9:00 am)
Dewpoint51.6 °F58 °F (6:00 pm) (7:00 pm)
Humidity63.8 %77 % (6:00 am)34 % (2:00 pm)
Barometer29.99 in30.04 in (9:00 am)29.92 in (4:00 pm)
Wind Speed18.3 mph26.5 mph (9:00 am)
Weather ElementAverage
Visibility4.6 mi
Wind DirectionSSE (161.9 °)

Weather ElementTotal
Precipitation---
Heating Degree Days26 (Base 65)
Averaged from 27 records on February 4, 2013
WEATHER CONDITIONS BREAKOUT
WIND DIRECTION BREAKOUT
WEATHER BY HOUR - FEBRUARY 4, 2013
[ °C ]   °F
Local TimeTemperatureDewpointHumidityBarometerVisibilityWind DirectionWind SpeedGust SpeedPrecipitationEventsConditions
12:00 AM64.4 °F53.6 °F68 %30.01 in3.7 miNorth (10°)20.7 mphWidespread Dust
1:00 AM62.6 °F51.8 °F68 %30.01 in4.3 miNorth (10°)23.0 mph
2:00 AM60.8 °F51.8 °F72 %30.01 in4.3 miNorth (10°)21.9 mph
3:00 AM61.0 °F54.0 °F71 %30.01 in4.0 miNorth (10°)23.0 mph
3:00 AM60.8 °F51.8 °F72 %29.98 in4.3 miNNE (20°)23.0 mph
5:00 AM60.8 °F51.8 °F72 %29.98 in4.3 miNNE (20°)24.2 mph
6:00 AM59.0 °F51.8 °F77 %29.98 in4.3 miNNE (30°)24.2 mph
6:00 AM59.0 °F53.0 °F73 %30.00 in4.0 miNorth (10°)24.2 mphClear
7:00 AM59.0 °F50.0 °F72 %29.98 in4.3 miNNE (30°)24.2 mph
9:00 AM60.0 °F53.0 °F70 %30.04 in4.0 miNorth (10°)26.5 mphBlowing Sand
9:00 AM0.0 °F0.0 °F30.01 in4.3 miNNE (30°)26.5 mphLow Drifting Sand
11:00 AM64.4 °F50.0 °F59 %30.04 in4.3 miNE (40°)21.9 mphLow Drifting Sand
12:00 PM68.0 °F50.0 °F52 %30.01 in4.3 miNE (40°)21.9 mphLow Drifting Sand
1:00 PM73.4 °F51.8 °F47 %29.98 in5.0 miNNE (30°)13.8 mph
2:00 PM77.0 °F46.4 °F34 %29.98 in5.0 miNNE (20°)11.5 mph
3:00 PM78.0 °F55.0 °F34 %29.96 in5.0 miNW (320°)10.4 mphScattered Clouds
3:00 PM77.0 °F53.6 °F44 %29.95 in5.0 miNNW (330°)9.2 mph
4:00 PM73.4 °F55.4 °F53 %29.92 in5.0 miNNW (330°)12.7 mph
5:00 PM71.6 °F55.4 °F57 %29.92 in5.0 miNNW (330°)13.8 mph
6:00 PM68.0 °F55.4 °F64 %29.92 in5.0 miNNW (330°)15.0 mph
6:00 PM69.0 °F58.0 °F59 %29.94 in5.0 miNW (320°)16.1 mphScattered Clouds
7:00 PM66.2 °F55.4 °F68 %29.95 in5.0 miNNW (340°)15.0 mph
8:00 PM64.4 °F57.2 °F77 %29.98 in5.0 miNNW (340°)15.0 mph
9:00 PM65.0 °F58.0 °F73 %30.01 in5.0 miNNW (340°)13.8 mphScattered Clouds
9:00 PM64.4 °F57.2 °F77 %30.01 in5.0 miNorth (350°)13.8 mph
10:00 PM64.4 °F55.4 °F73 %30.01 in5.0 miNorth (360°)13.8 mph
11:00 PM64.4 °F55.4 °F73 %30.01 in5.0 miNorth (360°)13.8 mph
Hourly data recorded from GQPP, located miles away from Nouadhibou, Mauritania







STORIES FROM OUR PARTNERS